Tracking 30685 objects as of 18-Jun-2025
HD Live streaming from Space Station
objects crossing your sky now

STARLINK-32533

Track STARLINK-32533 now!
10-day predictions
STARLINK-32533 is classified as:


NORAD ID: 61706
Int'l Code: 2024-195V
Perigee: 481.6 km
Apogee: 483.1 km
Inclination: 53.2 °
Period: 94.1 minutes
Semi major axis: 6853 km
RCS: Unknown
Launch date: October 30, 2024
Source: United States (US)
Launch site: AIR FORCE WESTERN TEST RANGE (AFWTR)
Your satellite tracking list
Your tracking list is empty




NASA's NSSDC Master Catalog

Two Line Element Set (TLE):
1 61706U 24195V   25169.07814690 -.00003150  00000-0 -94267-4 0  9992
2 61706  53.1614 304.0698 0001082 117.5077 242.6033 15.30201117 36528
Source of the keplerian elements: AFSPC